DW5993 Weather Reports


time (UTC)temp
F
wind
direction
speed
knots
gust
knots
rain 1hr
in
rain 24hr
in
rain mn
in
humidity
%
barometer
mb
20210801211116 78 158 2.6 4.3 0.00 0.01 0.01 37 1029.3
20210801210116 80 90 1.7 3.5 0.00 0.01 0.01 40 1030.0
20210801205116 79 135 3.5 4.3 0.00 0.01 0.01 37 1029.7
20210801204116 79 135 1.7 3.5 0.00 0.01 0.01 42 1030.0
20210801203117 79 135 0.9 1.7 0.00 0.01 0.01 44 1030.5
20210801202116 79 90 1.7 4.3 0.00 0.01 0.01 40 1030.5
20210801201116 78 225 1.7 1.7 0.00 0.01 0.01 43 1030.3
20210801200116 77 135 1.7 2.6 0.00 0.01 0.01 47 1030.6
20210801195116 77 158 1.7 4.3 0.00 0.01 0.01 47 1030.6
20210801194116 79 248 0.9 1.7 0.00 0.01 0.01 46 1031.3
20210801193116 77 180 1.7 2.6 0.00 0.01 0.01 48 1031.4
20210801192117 76 113 0.9 1.7 0.00 0.01 0.01 45 1031.0
20210801191116 77 135 0.9 1.7 0.00 0.01 0.01 48 1031.4
20210801190116 76 158 1.7 3.5 0.00 0.01 0.01 48 1031.4
20210801185116 78 158 0.9 4.3 0.00 0.01 0.01 49 1032.0
20210801184116 75 90 0.9 2.6 0.00 0.01 0.01 52 1031.3
20210801183116 74 338 2.6 5.2 0.00 0.01 0.01 53 1031.5
20210801182116 75 180 2.6 2.6 0.00 0.01 0.01 51 1031.5
20210801181117 75 203 1.7 4.3 0.00 0.01 0.01 54 1031.7
20210801180116 75 90 1.7 3.5 0.00 0.01 0.01 56 1031.9
20210801175116 72 0.0 0.0 0.00 0.01 0.01 60 1031.6
20210801174116 73 0 1.7 2.6 0.00 0.01 0.01 61 1031.9
20210801173116 73 113 0.9 0.9 0.00 0.01 0.01 58 1031.9
20210801172116 74 68 1.7 3.5 0.00 0.01 0.01 60 1032.4
20210801171117 73 203 0.9 1.7 0.00 0.01 0.01 57 1032.1
20210801170116 74 68 1.7 3.5 0.00 0.01 0.01 58 1032.5
20210801165116 74 0 0.9 1.7 0.00 0.01 0.01 60 1032.5
20210801164116 72 158 0.9 1.7 0.00 0.01 0.01 57 1032.0
20210801163116 73 113 1.7 2.6 0.00 0.01 0.01 52 1031.9
20210801162116 72 0.0 0.9 0.00 0.01 0.01 59 1032.1
20210801161116 71 180 0.9 1.7 0.00 0.01 0.01 63 1031.8
20210801160116 71 158 0.9 1.7 0.00 0.01 0.01 62 1031.8
20210801155116 70 180 1.7 1.7 0.00 0.01 0.01 63 1031.7
20210801154117 70 0.0 0.0 0.00 0.01 0.01 65 1031.8
20210801153116 69 135 0.9 1.7 0.00 0.01 0.01 65 1031.4
20210801152116 68 203 0.9 1.7 0.00 0.01 0.01 64 1031.3
20210801151116 68 315 0.9 1.7 0.00 0.01 0.01 69 1031.4
20210801150116 67 315 0.9 1.7 0.00 0.01 0.01 71 1031.2
20210801145116 67 0.0 0.9 0.00 0.01 0.01 72 1031.6
20210801144116 66 0.0 0.0 0.01 0.01 0.01 76 1031.2
20210801143116 67 0.0 0.9 0.01 0.01 0.01 74 1031.2
20210801142116 66 0.0 0.0 0.01 0.01 0.01 80 1031.3
20210801141116 65 0.0 0.0 0.01 0.01 0.01 76 1031.1
20210801140116 65 315 0.9 0.9 0.01 0.01 0.01 78 1030.6
20210801135116 64 315 0.9 1.7 0.01 0.01 0.01 86 1030.7
20210801134116 64 0.0 0.0 0.00 0.00 0.00 91 1030.8
20210801133116 63 0.0 0.0 0.00 0.00 0.00 91 1030.3
20210801132116 62 0.0 0.0 0.00 0.00 0.00 93 1030.3
20210801131116 62 0.0 0.0 0.00 0.00 0.00 93 1030.2
20210801130116 61 0.0 0.0 0.00 0.00 0.00 93 1029.8
20210801125116 61 0.0 0.0 0.00 0.00 0.00 93 1029.5
20210801124116 60 0.0 0.0 0.00 0.00 0.00 94 1029.6
20210801123116 60 0.0 0.0 0.00 0.00 0.00 93 1029.5
20210801122116 59 0.0 0.0 0.00 0.00 0.00 94 1029.1
20210801121116 59 0.0 0.0 0.00 0.00 0.00 94 1029.0
20210801120116 59 0.0 0.0 0.00 0.00 0.00 94 1028.8
20210801115116 59 0.0 0.0 0.00 0.00 0.00 94 1028.8
20210801114117 59 0.0 0.0 0.00 0.00 0.00 94 1028.7
20210801113116 59 0.0 0.9 0.00 0.00 0.00 95 1029.0
20210801112116 59 0.0 0.0 0.00 0.00 0.00 94 1028.9
20210801111116 59 0.0 0.0 0.00 0.00 0.00 94 1028.9
20210801110116 59 0.0 0.0 0.00 0.00 0.00 94 1028.3
20210801105116 58 0.0 0.0 0.00 0.00 0.00 94 1028.4
20210801104116 58 0.0 0.0 0.00 0.00 0.00 94 1028.3
20210801103116 58 0.0 0.9 0.00 0.00 0.00 94 1028.3
20210801102116 58 315 0.9 0.9 0.00 0.00 0.00 94 1028.5
20210801101116 58 0.0 0.0 0.00 0.00 0.00 93 1028.5
20210801100116 59 0.0 0.0 0.00 0.00 0.00 93 1028.5
20210801095116 59 0.0 0.0 0.00 0.00 0.00 93 1028.4
20210801094116 59 0.0 0.0 0.00 0.00 0.00 93 1028.4
20210801093116 59 0.0 0.0 0.00 0.00 0.00 93 1028.7
20210801092116 60 0.0 0.0 0.00 0.00 0.00 93 1029.0
20210801091116 60 0.0 0.0 0.00 0.00 0.00 93 1029.7
20210801090117 60 0.0 0.0 0.00 0.00 0.00 92 1029.6
20210801085116 60 0.0 0.9 0.00 0.00 0.00 92 1029.9
20210801084116 61 0.0 0.0 0.00 0.00 0.00 92 1029.9
20210801083116 61 0.0 0.9 0.00 0.00 0.00 92 1030.5
20210801082116 61 0.0 0.0 0.00 0.00 0.00 91 1030.2
20210801081116 61 0.0 0.0 0.00 0.00 0.00 91 1030.3
20210801080117 62 0.0 0.0 0.00 0.00 0.00 90 1030.6
20210801075116 62 0.0 0.0 0.00 0.00 0.00 89 1030.3
20210801074116 63 0.0 0.0 0.00 0.00 0.00 89 1031.0
20210801073116 63 0.0 0.9 0.00 0.00 0.00 87 1031.0
20210801072116 62 0.0 0.0 0.00 0.00 0.00 88 1031.0
20210801071116 62 0.0 0.9 0.00 0.00 0.00 91 1030.8
20210801070116 62 0.0 0.0 0.00 0.00 0.00 92 1031.1
20210801065116 62 0.0 0.0 0.00 0.00 0.00 92 1031.3
20210801064116 62 0.0 0.0 0.00 0.00 0.00 92 1031.3
20210801063116 62 0.0 0.0 0.00 0.00 0.00 91 1031.4
20210801062116 62 0.0 0.0 0.00 0.00 0.00 90 1031.5
20210801061116 62 0.0 0.0 0.00 0.00 0.00 91 1031.0
20210801060116 63 0.0 0.0 0.00 0.00 0.00 90 1031.3
20210801055116 63 0.0 0.0 0.00 0.00 0.00 91 1030.9
20210801054117 62 0.0 0.0 0.00 0.00 0.00 91 1030.9
20210801053116 63 0.0 0.0 0.00 0.00 0.00 90 1030.9
20210801052117 63 0.0 0.0 0.00 0.00 0.00 90 1031.1
20210801051117 63 0.0 0.0 0.00 0.00 0.00 90 1030.8
20210801050116 62 0.0 0.0 0.00 0.00 0.00 90 1030.8
20210801045117 62 0.0 0.0 0.00 0.00 0.00 90 1030.9
20210801044116 62 0.0 0.0 0.00 0.00 0.00 90 1031.2
20210801043116 62 0.0 0.0 0.00 0.00 0.00 90 1030.8
20210801042116 62 0.0 0.0 0.00 0.00 0.00 89 1030.8
20210801041116 62 0.0 0.0 0.00 0.00 0.00 89 1030.5
20210801040117 62 0.0 0.0 0.00 0.00 0.00 90 1030.4
20210801035116 62 0.0 0.0 0.00 0.00 0.00 89 1030.2
20210801034117 62 0.0 0.0 0.00 0.00 0.00 90 1030.1
20210801033116 62 0.0 0.0 0.00 0.00 0.00 89 1029.9
20210801032116 62 0.0 0.0 0.00 0.00 0.00 88 1029.8
20210801031116 62 0.0 0.9 0.00 0.00 0.00 88 1029.6
20210801030116 62 0.0 0.0 0.00 0.00 0.00 87 1029.3
20210801025117 63 0.0 0.0 0.00 0.00 0.00 88 1029.5
20210801024116 63 0.0 0.9 0.00 0.00 0.00 88 1029.1
20210801023116 63 0.0 0.0 0.00 0.00 0.00 87 1029.0
20210801022117 63 0.0 0.9 0.00 0.00 0.00 85 1028.8
20210801021116 63 315 0.9 1.7 0.00 0.00 0.00 85 1028.3
20210801020116 63 203 0.9 2.6 0.00 0.00 0.00 87 1028.4
20210801015116 63 0.0 0.9 0.00 0.00 0.00 90 1028.0
20210801014116 63 0.0 0.0 0.00 0.00 0.00 90 1028.1
20210801013116 62 0.0 0.0 0.00 0.00 0.00 89 1027.8
20210801012117 62 0.0 0.0 0.00 0.00 0.00 89 1027.7
20210801011116 62 0.0 0.9 0.00 0.00 0.00 87 1027.6
20210801010116 62 293 0.9 1.7 0.00 0.00 0.00 86 1027.5
20210801005116 62 338 0.9 1.7 0.00 0.00 0.00 86 1027.4
20210801004117 62 293 1.7 3.5 0.00 0.00 0.00 87 1027.4
20210801003117 63 293 0.9 1.7 0.00 0.00 0.00 89 1027.8
20210801002116 62 293 2.6 6.1 0.00 0.00 0.00 91 1027.5
20210801001116 62 293 1.7 2.6 0.00 0.00 0.00 91 1027.5
20210801000116 62 315 0.9 0.9 0.00 0.00 0.00 92 1027.6
20210731235116 62 293 1.7 2.6 0.00 0.00 0.00 92 1027.7
20210731234116 62 270 1.7 2.6 0.00 0.00 0.00 92 1027.8
20210731233116 63 270 1.7 2.6 0.00 0.00 0.00 92 1028.1
20210731232117 63 0.0 0.0 0.00 0.00 0.00 91 1027.6
20210731231116 63 0.0 0.9 0.00 0.00 0.00 90 1027.8
20210731230116 63 0.0 0.0 0.00 0.00 0.00 90 1027.6
20210731225116 63 270 0.9 1.7 0.00 0.00 0.00 90 1027.5
20210731224116 63 315 0.9 0.9 0.00 0.00 0.00 91 1027.4
20210731223116 64 270 0.9 1.7 0.00 0.00 0.00 91 1027.4
20210731222116 64 315 0.9 1.7 0.00 0.00 0.00 92 1027.5
20210731221116 64 0.0 0.0 0.00 0.00 0.00 92 1027.4
20210731220117 64 0.0 0.0 0.00 0.00 0.00 92 1027.1
20210731215116 64 293 0.9 2.6 0.00 0.00 0.00 91 1027.1
20210731214116 64 0.0 0.9 0.00 0.00 0.00 89 1027.1
20210731213116 66 68 0.9 1.7 0.00 0.00 0.00 87 1027.2
20210731212116 68 135 0.9 0.9 0.00 0.00 0.00 82 1027.2